Regional Weather Roundup
Issued by NWS State College, PA

Home | Current Version | Previous Version | Text Only | Print | Product List | Glossary On
Versions: 1 2 3 4 5 6 7 8 9 10 11 12 13 14 15 16 17 18 19 20 21 22 23 24 25 26 27 28 29 30 31 32 33 34 35 36 37 38 39 40 41 42 43 44 45 46 47 48 49 50
000
ASUS41 KCTP 010310
RWRCTP

REGIONAL WEATHER ROUNDUP
NATIONAL WEATHER SERVICE STATE COLLEGE PA
1100 PM EDT THU JUL 31 2014

Note: "fair" indicates few or no clouds below 12,000 feet with no
significant weather and/or obstructions to visibility.

* = STATION THAT DOES NOT REPORT PRECIPITATION /E.G. RAIN...SNOW...ETC/
    THUNDER OR FOG.

PAZ002>004-007>009-013>016-020>023-029>032-010400-
WESTERN PENNSYLVANIA

CITY           SKY/WX    TMP DP  RH WIND       PRES   REMARKS
ERIE           CLEAR     65  53  65 S8        30.08F
MEADVILLE      CLEAR     63  52  67 CALM      30.12S
FRANKLIN*      CLEAR     61  54  77 CALM      30.15S
NEW CASTLE     FAIR      61  60  96 CALM      30.13S
BEAVER COUNTY  NOT AVBL
BUTLER*        CLEAR     63  59  88 CALM      30.15S
PITTSBURGH INT PTCLDY    67  62  84 CALM      30.13S
PITTSBURGH     CLEAR     71  58  63 S5        30.13S
INDIANA*       MOCLDY    63  63 100 CALM      30.19S FOG
LATROBE        CLEAR     64  64 100 CALM      30.15S
WASHINGTON CO* MOCLDY    61  57  88 CALM      30.14S VSB 1
$$

PAZ004>006-010>012-017>019-024>028-033>037-041-042-045-046-049>053-010400-
CENTRAL PENNSYLVANIA

CITY           SKY/WX    TMP DP  RH WIND       PRES   REMARKS
BRADFORD       CLEAR     54  52  93 CALM      30.16S
DUBOIS         CLEAR     62  59  90 CALM      30.15S
CLEARFIELD     CLEAR     61  59  93 N5        30.16S
JOHNSTOWN      PTCLDY    65  56  72 SW3       30.18S
ALTOONA        CLEAR     62  59  90 CALM      30.16S
STATE COLLEGE  CLEAR     63  61  94 CALM      30.15S
WILLIAMSPORT   PTCLDY    67  63  87 N5        30.11S
SELINSGROVE    CLEAR     62  60  93 CALM      30.14R FOG
FT INDIANTOWN  PTCLDY    66  65  96 NE2       30.13S
CAPITAL CITY   MOCLDY    71  62  73 CALM      30.12R
HARRISBURG     PTCLDY    73  63  70 CALM      30.11S
YORK           PTCLDY    66  62  87 CALM      30.12S
$$

PAZ038>040-043-044-047-048-054-055-060>062-067>071-010400-
EASTERN PENNSYLVANIA

CITY           SKY/WX    TMP DP  RH WIND       PRES   REMARKS
SCRANTON       CLOUDY    69  57  65 CALM      30.14S
MOUNT POCONO   PTCLDY    61  57  87 CALM      30.19S
ALLENTOWN      PTCLDY    67  62  84 CALM      30.14R
QUAKERTOWN*    CLEAR     66  63  88 CALM      30.16R
READING        CLEAR     71  64  78 CALM      30.13S
LANCASTER      PTCLDY    69  63  81 E5        30.13S
COATESVILLE    PTCLDY    68  66  94 CALM      30.16S
POTTSTOWN      CLEAR     69  62  78 CALM      30.15S
BLUE BELL      PTCLDY    68  64  88 CALM      30.14S
DOYLESTOWN     PTCLDY    69  62  78 S3        30.14S
WILLOW GROVE   NOT AVBL
NORTH PHILA    MOCLDY    76  64  66 CALM      30.15S
PHILADELPHIA   MOCLDY    75  67  76 VRB7      30.14S
$$



USA.gov is the U.S. government's official web portal to all federal, state and local government web resources and services.